Regional Weather Roundup
Issued by NWS

Home | Current Version | Previous Version | Graphics & Text | Print | Product List | Glossary On
Versions: 1 2 3 4 5 6 7 8 9 10 11 12 13 14 15 16 17 18 19 20 21 22 23 24 25 26 27 28 29 30 31 32 33 34 35 36 37 38 39 40 41 42 43 44 45 46 47 48 49 50
000
ASUS45 KTFX 181510
RWRMT
MONTANA REGIONAL WEATHER ROUNDUP
NATIONAL WEATHER SERVICE GREAT FALLS MT
900 AM MDT WED OCT 18 2017

NOTE: "FAIR" INDICATES FEW OR NO CLOUDS BELOW 12000 FEET WITH NO
SIGNIFICANT WEATHER AND/OR OBSTRUCTIONS TO VISIBILITY.

MTZ001>007-043-181600-
WEST OF THE DIVIDE

CITY           SKY/WX    TMP DP  RH WIND       PRES   REMARKS
KALISPELL      CLOUDY    34  28  79 CALM      30.02R
MISSOULA       MOCLDY    47  34  60 N6        30.04S
BUTTE          SUNNY     36  24  62 E3        30.07R
MULLAN PASS    CLOUDY    34  29  82 SW8       30.01S WCI  27
ANACONDA         N/A     45  25  45 S3        30.05S
DEER LODGE       N/A     39  30  70 CALM      30.07R
EUREKA           N/A     34  25  69 MISG      30.00F
HAMILTON         N/A     43  30  61 S8          N/A
LIBBY            N/A     32  27  80 CALM      30.01F
$$

MTZ008-052>055-181600-
SOUTHWEST MONTANA

CITY           SKY/WX    TMP DP  RH WIND       PRES   REMARKS
BOZEMAN        CLOUDY    45  25  45 CALM      30.05R
DILLON         CLOUDY    43  19  38 S5        30.08R
W YELLOWSTONE  CLOUDY    32  21  64 CALM      30.21R
ENNIS          CLOUDY    41  19  42 S18       30.13S
THREE FORKS      N/A     37  25  62 CALM      30.03R
$$

MTZ009-010-012-014-046-048-049-054-181600-
EAST SLOPES AND CENTRAL MONTANA

CITY           SKY/WX    TMP DP  RH WIND       PRES   REMARKS
CUT BANK       CLOUDY    42  14  32 W7        29.92F
GREAT FALLS    MOSUNNY   50  31  48 SW17G25   29.95F
HELENA         CLOUDY    43  31  62 N3        30.02S
CHOTEAU          N/A     43  23  45 E8        29.97R
RAYNESFORD     PTSUNNY   53  28  38 W15       29.97S
$$

MTZ011-013-016-021-045-047-050-051-181600-
NORTH CENTRAL MONTANA

CITY           SKY/WX    TMP DP  RH WIND       PRES   REMARKS
HAVRE          SUNNY     34  28  79 VRB6      29.97R WCI  29
LEWISTOWN      CLOUDY    37  25  61 SE6       30.01R
N BAR RANCH      N/A     37  23  56 CALM      30.06R
CHINOOK          N/A     34  28  80 SW3       29.98R
GEYSER           N/A     41  24  51 E6        29.98R
JUDITH GAP       N/A     39  26  58 S18       30.02R WCI  30
$$

MTZ017>020-022>027-061-062-181600-
NORTHEAST MONTANA

CITY           SKY/WX    TMP DP  RH WIND       PRES   REMARKS
GLASGOW        SUNNY     43  28  55 W7        29.99R
JORDAN           N/A     41  33  73 W3        30.01R
SIDNEY         MOSUNNY   47  23  38 NW15      29.97S
WOLF POINT     MOSUNNY   45  26  47 W9        29.99R
MALTA          SUNNY     36  30  80 SW5       29.99R
PLENTYWOOD       N/A     41  21  45 W21       29.91R
POPLAR           N/A     45  25  45 W12       29.99R
$$

MTZ028>42-056>058-181600-
SOUTHCENTRAL AND SOUTHEAST MONTANA

CITY           SKY/WX    TMP DP  RH WIND       PRES   REMARKS
BAKER          SUNNY     43  31  62 W9        30.05R
BILLINGS       PTSUNNY   44  29  55 E9        30.04R
LIVINGSTON     CLOUDY    54  20  26 W17       30.02R
MILES CITY     SUNNY     45  30  55 W3        30.05R
BIG TIMBER     SUNNY     50  16  25 W10       30.05R
EKALAKA          N/A     43  25  49 W3        30.03R
FORSYTH          N/A     45  28  53 CALM      30.06R
LAUREL           N/A     45  30  57 NE12      30.05R
$$

REGIONAL REPORTS...DAKOTAS

CITY           SKY/WX    TMP DP  RH WIND       PRES   REMARKS
WILLISTON      SUNNY     46  22  38 W17       29.94R
MINOT          SUNNY     49  20  31 W26G35    29.83R
DICKINSON      CLOUDY    46  25  43 W12       29.97R
BEACH            N/A     45  25  45 W12       30.04R
CROSBY           N/A     43  19  39 W20G26    29.86R
TIOGA            N/A     43  18  36 W25G33    29.90R
WATFORD CITY     N/A     45  21  39 W12G21    29.95R
BISMARCK       CLOUDY    52  29  41 NW16G25   29.95R
GRAND FORKS    CLOUDY    55  34  45 W17G30    29.74R
FARGO          MOSUNNY   57  38  48 NW17G24   29.79R
BUFFALO SD       N/A     47  29  49 NW13      29.98R
RAPID CITY     CLOUDY    53  28  38 N13       30.08R
$$

REGIONAL REPORTS...WYOMING/IDAHO/WASHINGTON

CITY           SKY/WX    TMP DP  RH WIND       PRES   REMARKS
GILLETTE       CLOUDY    47  29  49 NE3       30.10R
SHERIDAN       SUNNY     48  28  46 NW5       30.09R
BUFFALO WY     CLOUDY    50  18  28 E5        30.11R
CODY           CLOUDY    54  21  27 VRB6      30.08R
IDAHO FALLS    CLOUDY    32  26  78 N5        30.20R
SALMON         CLEAR     29  26  89 SE3       30.12R
BOISE          CLEAR     44  30  57 CALM      30.12S
SPOKANE        MOCLDY    42  34  73 SE5       29.99F
$$

REGIONAL REPORTS...ALBERTA

CITY           SKY/WX    TMP DP  RH WIND       PRES   REMARKS
EDMONTON       CLEAR     34  23  64 W7        29.77F WCI  28
CALGARY        CLOUDY    37  12  35 SW5       29.82F
LETHBRIDGE     MOCLDY    46  14  27 W28G36    29.87F
MEDICINE HAT   MOCLDY    34  27  75 VRB2      29.90R
$$

REGIONAL REPORTS...SASKATCHEWAN

CITY           SKY/WX    TMP DP  RH WIND       PRES   REMARKS
SWIFT CURRENT  SUNNY     36  23  60 W18G24    29.85R WCI  25
REGINA         MOSUNNY   41  21  45 W29G38    29.75R
SASKATOON      SUNNY     41  25  52 W31G40    29.64R
$$



USA.gov is the U.S. government's official web portal to all federal, state and local government web resources and services.